This demonstration page uses our WeatherBlox Daily Observations layout. Learn more.

Left ArrowRight Arrow

36.17497, -115.13722

Hourly Observations for May 9, 2021

Temp ( °F °C ) Dew Point ( °F °C ) Humidity (%) Winds ( mph kmh ) Pressure ( in mb ) Visibility ( mi km ) Precip ( " mm )
12:53 am 00:53 Clear 75 23.9 3 -16.1 6 6 NNW 10 17 29.8 1009 10 16.0934 N/A
1:53 am 01:53 Clear 73 22.8 2 -16.7 6 6 NNW 12 19 29.8 1009 10 16.0934 N/A
2:53 am 02:53 Clear 72 22.2 5 -15 7 7 NNE 6 9 29.81 1009 10 16.0934 N/A
3:53 am 03:53 Clear 71 21.7 6 -14.4 8 8 NW 12 19 29.81 1010 10 16.0934 N/A
4:53 am 04:53 Clear 70 21.1 8 -13.3 9 9 NW 8 13 29.82 1010 10 16.0934 N/A
5:53 am 05:53 Sunny 70 21.1 9 -12.8 9 9 NNW 10 17 29.83 1010 10 16.0934 N/A
6:53 am 06:53 Sunny 70 21.1 12 -11.1 10 10 N N/A 29.85 1011 10 16.0934 N/A
7:53 am 07:53 Sunny 73 22.8 13 -10.6 10 10 NW 13 20 29.86 1011 10 16.0934 N/A
8:53 am 08:53 Sunny 76 24.4 13 -10.6 9 9 NNW 10 17 29.86 1011 10 16.0934 N/A
9:53 am 09:53 Sunny 77 25 13 -10.6 9 9 E 5 7 29.86 1011 10 16.0934 N/A
10:53 am 10:53 Sunny 78 25.6 12 -11.1 8 8 SSE 5 7 29.86 1011 10 16.0934 N/A
11:53 am 11:53 Sunny 80 26.7 12 -11.1 7 7 WSW 6 9 29.83 1010 10 16.0934 N/A
12:53 pm 12:53 Sunny 83 28.3 11 -11.7 6 6 S 3 6 29.8 1009 10 16.0934 N/A
2:53 pm 14:53 Sunny 87 30.6 11 -11.7 6 6 NNE 5 7 29.73 1007 10 16.0934 N/A
3:53 pm 15:53 Sunny 87 30.6 12 -11.1 6 6 N N/A 29.69 1006 10 16.0934 N/A
4:53 pm 16:53 Sunny 89 31.7 12 -11.1 5 5 N 7 11 29.67 1005 10 16.0934 N/A
5:53 pm 17:53 Sunny 88 31.1 12 -11.1 6 6 N N/A 29.66 1004 10 16.0934 N/A
6:53 pm 18:53 Sunny 88 31.1 10 -12.2 5 5 N N/A 29.65 1004 10 16.0934 N/A
7:53 pm 19:53 Clear 86 30 12 -11.1 6 6 W 5 7 29.65 1004 10 16.0934 N/A
8:53 pm 20:53 Clear 83 28.3 12 -11.1 7 7 NW 5 7 29.67 1005 10 16.0934 N/A
9:53 pm 21:53 Clear 81 27.2 12 -11.1 7 7 WNW 5 7 29.68 1005 10 16.0934 N/A
10:53 pm 22:53 Clear 76 24.4 18 -7.8 11 11 W 6 9 29.69 1005 10 16.0934 N/A
11:53 pm 23:53 Clear 72 22.2 17 -8.3 12 12 NNW 6 9 29.68 1005 10 16.0934 N/A

Powered by AerisWeather